This is the latest recevied weather packets stored in our database for station/object WP4NYS-13. If no packets are shown the sender has not sent any weather packets the latest 10 day(s).
| Time | Temp. | Humidity | Pressure | Rain* | Wind** | Luminosity | Snow |
|---|---|---|---|---|---|---|---|
| 1777504505 | 28.33° C | 52% | 1012.5 hPa | 0 mm | - | - | - |
| 1777504201 | 28.33° C | 52% | 1012.4 hPa | 0 mm | - | - | - |
| 1777503896 | 28.33° C | 51% | 1012.6 hPa | 0 mm | - | - | - |
| 1777503592 | 28.89° C | 51% | 1012.6 hPa | 0 mm | - | - | - |
| 1777503290 | 28.89° C | 49% | 1012.4 hPa | 0 mm | - | - | - |
| 1777502986 | 28.89° C | 49% | 1012.4 hPa | 0 mm | - | - | - |
| 1777502684 | 28.89° C | 49% | 1012.4 hPa | 0 mm | - | - | - |
| 1777502380 | 29.44° C | 49% | 1012.4 hPa | 0 mm | - | - | - |
| 1777502077 | 29.44° C | 49% | 1012.4 hPa | 0 mm | - | - | - |
| 1777501774 | 29.44° C | 49% | 1012 hPa | 0 mm | - | - | - |
| 1777501471 | 29.44° C | 49% | 1012.3 hPa | 0 mm | - | - | - |
| 1777501168 | 29.44° C | 49% | 1012.3 hPa | 0 mm | - | - | - |
| 1777500867 | 29.44° C | 52% | 1012 hPa | 0 mm | - | - | - |
| 1777500563 | 30° C | 52% | 1012.1 hPa | 0 mm | - | - | - |
| 1777500260 | 30° C | 52% | 1012.1 hPa | 0 mm | - | - | - |
| 1777499956 | 30° C | 52% | 1012.2 hPa | 0 mm | - | - | - |
| 1777499654 | 30° C | 51% | 1012.1 hPa | 0 mm | - | - | - |
| 1777499350 | 30° C | 50% | 1012.1 hPa | 0 mm | - | - | - |
| 1777499049 | 30.56° C | 49% | 1011.8 hPa | 0 mm | - | - | - |
| 1777498744 | 31.11° C | 48% | 1012 hPa | 0 mm | - | - | - |
| 1777498441 | 31.11° C | 49% | 1012.2 hPa | 0 mm | - | - | - |
| 1777498137 | 31.11° C | 49% | 1012.2 hPa | 0 mm | - | - | - |
| 1777497835 | 30.56° C | 50% | 1012.3 hPa | 0 mm | - | - | - |
| 1777497531 | 31.11° C | 49% | 1012.4 hPa | 0 mm | - | - | - |
| 1777497227 | 32.22° C | 47% | 1012.6 hPa | 0 mm | - | - | - |
* Rain latest hour (hover to see other rain measurements)
** Current wind speed in m/s (hover to see current wind gust speed)